DW7890 Weather Reports


time (UTC)temp
C
wind
direction
speed
KPH
gust
KPH
rain 1hr
cm
rain 24hr
cm
rain mn
cm
humidity
%
barometer
mb
20260906154513 27 32 0.0 0.0 0.00 0.00 0.00 75 1015.2
20260906153012 27 52 0.0 0.0 0.00 0.00 0.00 75 1015.1
20260906151510 27 25 0.0 0.0 0.00 0.00 0.00 78 1014.9
20260906150016 26 59 0.0 0.0 0.00 0.00 0.00 78 1014.6
20260906144507 26 46 0.0 0.0 0.00 0.00 0.00 80 1014.4
20260906143006 26 44 0.0 0.0 0.00 0.00 0.00 81 1014.5
20260906141505 25 59 0.0 0.0 0.00 0.00 0.00 83 1014.3
20260906140011 25 53 0.0 0.0 0.00 0.00 0.00 84 1014.3
20260906134506 25 53 0.0 0.0 0.00 0.00 0.00 85 1014.2
20260906133006 24 57 0.0 0.0 0.00 0.00 0.00 86 1014.3
20260906131504 23 51 0.0 0.0 0.00 0.00 0.00 87 1014.4
20260906130003 23 46 0.0 0.0 0.00 0.00 0.00 88 1014.4
20260906124502 23 20 0.0 0.0 0.00 0.00 0.00 88 1014.3
20260906123002 23 41 0.0 0.0 0.00 0.00 0.00 88 1014.2
20260906121605 23 43 0.0 0.0 0.00 0.00 0.00 89 1013.9
20260906120106 23 46 0.0 0.0 0.00 0.00 0.00 88 1013.8
20260906114608 23 46 0.0 0.0 0.00 0.00 0.00 88 1013.4
20260906113054 23 46 0.0 0.0 0.00 0.00 0.00 88 1013.3
20260906111619 23 32 0.0 0.0 0.00 0.00 0.00 88 1013.4
20260906110052 23 32 0.0 0.0 0.00 0.00 0.00 88 1013.4
20260906104549 23 32 0.0 0.0 0.00 0.00 0.00 88 1013.2
20260906103046 24 43 0.0 0.0 0.00 0.00 0.00 88 1013.1
20260906101545 24 42 0.0 0.0 0.00 0.00 0.00 88 1013.1
20260906100044 24 42 0.0 0.0 0.00 0.00 0.00 88 1012.8
20260906094541 25 42 0.0 0.0 0.00 0.00 0.00 87 1012.5
20260906093049 25 41 0.0 0.0 0.00 0.00 0.00 87 1012.7
20260906091537 25 50 0.0 0.0 0.00 0.00 0.00 86 1012.6
20260906090036 25 44 0.0 0.0 0.00 0.00 0.00 86 1012.5
20260906084533 26 51 0.0 0.0 0.00 0.00 0.00 86 1012.4
20260906083030 26 50 0.0 0.0 0.00 0.00 0.00 86 1012.1
20260906081544 26 51 0.0 0.0 0.00 0.00 0.00 86 1012.0
20260906080027 26 53 0.0 0.0 0.00 0.00 0.00 85 1012.0
20260906074526 26 54 0.0 0.0 0.00 0.00 0.00 85 1012.0
20260906073039 27 55 0.0 0.0 0.00 0.00 0.00 85 1012.2
20260906071522 27 46 0.0 0.0 0.00 0.00 0.00 85 1012.2
20260906070032 27 5 0.0 0.0 0.00 0.00 0.00 83 1012.0
20260906064518 27 9 0.0 0.0 0.00 0.00 0.00 80 1012.1
20260906063016 28 9 0.0 0.0 0.00 0.00 0.00 80 1012.2
20260906061516 28 360 0.0 0.0 0.00 0.00 0.00 79 1012.1
20260906060015 28 348 0.0 0.0 0.00 0.00 0.00 79 1012.1
20260906054520 27 346 0.0 0.0 0.00 0.00 0.00 78 1012.1
20260906053012 28 346 0.0 0.0 0.00 0.00 0.00 77 1012.2
20260906051519 28 346 0.0 0.0 0.00 0.00 0.00 76 1012.2
20260906050008 28 346 0.0 0.0 0.00 0.00 0.00 74 1012.0
20260906044509 28 346 0.0 0.0 0.00 0.00 0.00 73 1012.0
20260906043007 28 346 0.0 0.0 0.00 0.00 0.00 72 1011.8
20260906041508 28 346 0.0 0.0 0.00 0.00 0.00 71 1011.8
20260906040007 29 346 0.0 0.0 0.00 0.00 0.00 70 1011.5
20260906034506 29 346 0.0 0.0 0.00 0.00 0.00 69 1011.6
20260906033006 29 346 0.0 0.0 0.00 0.00 0.00 68 1011.5
20260906031509 30 346 0.0 0.0 0.00 0.00 0.00 67 1011.5
20260906030005 30 346 0.0 0.0 0.00 0.00 0.00 66 1011.3
20260906024504 30 346 0.0 0.0 0.00 0.00 0.00 66 1011.1
20260906023003 30 347 0.0 0.0 0.00 0.00 0.00 66 1010.9
20260906021504 30 347 0.0 0.0 0.00 0.00 0.00 65 1010.6
20260906020003 30 347 0.0 0.0 0.00 0.00 0.00 64 1010.5
20260906014503 31 347 0.0 0.0 0.00 0.00 0.00 63 1010.3
20260906013003 31 347 0.0 0.0 0.00 0.00 0.00 63 1010.0
20260906011502 31 347 0.0 0.0 0.00 0.00 0.00 62 1009.9
20260906010002 32 347 0.0 0.0 0.00 0.00 0.00 60 1009.9
20260906004502 32 347 0.0 0.0 0.00 0.00 0.00 60 1009.8
20260906003001 32 346 0.0 0.0 0.00 0.00 0.00 58 1009.7
20260906001601 33 349 0.0 0.0 0.00 0.00 0.00 56 1009.9
20260906000109 33 355 0.0 0.0 0.00 0.00 0.00 55 1009.9
20260905234603 33 355 0.0 0.0 0.00 0.00 0.00 55 1009.7
20260905233059 33 355 0.0 0.0 0.00 0.00 0.00 53 1009.8
20260905231559 35 355 0.0 0.0 0.00 0.00 0.00 51 1010.0
20260905230101 35 344 0.0 0.0 0.00 0.00 0.00 50 1010.0
20260905224607 35 348 0.0 0.0 0.00 0.00 0.00 48 1009.9
20260905223057 36 323 0.0 0.0 0.00 0.00 0.00 46 1009.7
20260905221557 37 355 0.0 0.0 0.00 0.00 0.00 45 1009.6
20260905214557 37 50 0.0 0.0 0.00 0.00 0.00 43 1009.7
20260905213055 37 14 0.0 0.0 0.00 0.00 0.00 43 1009.7
20260905211555 37 47 0.0 0.0 0.00 0.00 0.00 43 1009.6
20260905210052 37 45 0.0 0.0 0.00 0.00 0.00 44 1009.9
20260905204552 37 355 0.0 0.0 0.00 0.00 0.00 44 1010.1
20260905203051 38 343 0.0 0.0 0.00 0.00 0.00 42 1010.0
20260905201550 38 36 0.0 0.0 0.00 0.00 0.00 45 1010.2
20260905200054 38 47 0.0 0.0 0.00 0.00 0.00 42 1010.1
20260905194547 38 301 0.0 0.0 0.00 0.00 0.00 41 1010.2
20260905193045 38 346 0.0 0.0 0.00 0.00 0.00 40 1010.5
20260905191546 38 345 0.0 0.0 0.00 0.00 0.00 41 1010.7
20260905190051 37 277 0.0 0.0 0.00 0.00 0.00 42 1010.8
20260905184605 37 319 0.0 0.0 0.00 0.00 0.00 41 1010.9
20260905183046 38 277 0.0 0.0 0.00 0.00 0.00 40 1011.1
20260905181538 38 281 0.0 0.0 0.00 0.00 0.00 41 1011.2
20260905180035 37 296 0.0 0.0 0.00 0.00 0.00 42 1011.3
20260905174534 37 255 0.0 0.0 0.00 0.00 0.00 43 1011.5
20260905173034 37 252 0.0 0.0 0.00 0.00 0.00 46 1011.6
20260905171535 37 360 0.0 0.0 0.00 0.00 0.00 48 1011.7
20260905170028 36 274 0.0 0.0 0.00 0.00 0.00 47 1012.1
20260905164533 36 59 0.0 0.0 0.00 0.00 0.00 48 1012.1
20260905163025 36 333 0.0 0.0 0.00 0.00 0.00 49 1012.2
20260905161522 36 313 0.0 0.0 0.00 0.00 0.00 50 1012.3
20260905160020 35 9 0.0 0.0 0.00 0.00 0.00 51 1012.4